Weather History for KLAA - January, 2013

Change the Weather History Date:

Saturday, January 12, 2013

  Actual Average Record
Temperature  
Mean Temperature 15 °F 28 °F  
Max Temperature 28 °F 44 °F 74 °F (1953)
Min Temperature 2 °F 13 °F -19 °F (1963)
Degree Days  
Heating Degree Days 50 37  
Month to date heating degree days 470 444  
Since 1 July heating degree days 2620 2757  
Cooling Degree Days 0 0  
Month to date cooling degree days 0 0  
Year to date cooling degree days 0 0  
Moisture  
Dew Point 5 °F    
Average Humidity 65    
Maximum Humidity 92    
Minimum Humidity 38    
Precipitation  
Precipitation 0.00 in 0.01 in 0.29 in (1979)
Month to date precipitation T 0.07  
Year to date precipitation T 0.07  
Sea Level Pressure  
Sea Level Pressure 30.09 in    
Wind  
Wind Speed 5 mph (NE)    
Max Wind Speed 14 mph    
Max Gust Speed 22 mph    
Visibility 10 miles    
Events      
T = Trace of Precipitation, MM = Missing Value Source: NWS Daily Summary

Daily Weather History Graph

Daily Weather History Graph

Search for Another Location

Airport or City:

Trip Planner

Search our weather history database for the weather conditions in past years. The results will help you decide how hot, cold, wet, or windy it might be!

Date:

Astronomy

Jan. 12, 2013 Rise Set
Actual Time 7:06 AM MST 4:52 PM MST
Civil Twilight 6:37 AM MST 5:21 PM MST
Nautical Twilight 6:05 AM MST 5:53 PM MST
Astronomical Twilight 5:33 AM MST 6:25 PM MST
Moon 7:28 AM MST (1/12) 6:21 PM MST (1/12)
Length of Visible Light 10h 43m
Length of Day
9h 45m
New Moon, 1% of the Moon is Illuminated
Jan 12
New Moon
Jan 18
First Quarter
Jan 26
Full
Feb 3
Last Quarter
Feb 10
New

Hourly Weather History & Observations

Time (MST) Temp. Windchill Dew Point Humidity Pressure Visibility Wind Dir Wind Speed Gust Speed Precip Events Conditions
12:53 AM 10.9 °F - 8.1 °F 88% 29.90 in 10.0 mi Calm Calm - N/A   Clear
1:53 AM 15.1 °F 7.7 °F 10.9 °F 84% 29.92 in 10.0 mi East 4.6 mph - N/A   Clear
2:53 AM 10.9 °F 4.7 °F 7.0 °F 84% 29.96 in 10.0 mi ENE 3.5 mph - N/A   Clear
3:53 AM 10.0 °F - 7.0 °F 87% 29.96 in 10.0 mi Calm Calm - N/A   Clear
4:53 AM 9.0 °F - 3.9 °F 80% 29.99 in 10.0 mi Calm Calm - N/A   Clear
5:53 AM 6.1 °F - 1.9 °F 83% 30.03 in 10.0 mi Calm Calm - N/A   Clear
6:53 AM 1.9 °F - -2.0 °F 83% 30.10 in 10.0 mi Calm Calm - N/A   Clear
7:53 AM 6.1 °F - 1.9 °F 83% 30.15 in 10.0 mi Calm Calm - N/A   Clear
8:53 AM 14.0 °F 6.5 °F 8.1 °F 77% 30.14 in 10.0 mi East 4.6 mph - N/A   Clear
9:53 AM 18.0 °F 8.7 °F 7.0 °F 62% 30.15 in 10.0 mi East 6.9 mph - N/A   Clear
10:53 AM 19.9 °F 9.3 °F 5.0 °F 52% 30.12 in 10.0 mi ENE 9.2 mph - N/A   Clear
11:53 AM 23.0 °F 13.1 °F 6.1 °F 48% 30.09 in 10.0 mi North 9.2 mph - N/A   Clear
12:53 PM 26.1 °F 16.2 °F 6.1 °F 43% 30.06 in 10.0 mi North 10.4 mph 16.1 mph N/A   Clear
1:53 PM 26.1 °F 20.5 °F 5.0 °F 41% 30.04 in 10.0 mi Variable 4.6 mph - N/A   Clear
2:53 PM 27.0 °F 20.5 °F 5.0 °F 39% 30.06 in 10.0 mi North 5.8 mph - N/A   Clear
3:53 PM 27.0 °F 18.7 °F 5.0 °F 39% 30.06 in 10.0 mi NNE 8.1 mph - N/A   Clear
4:53 PM 21.9 °F 13.4 °F 5.0 °F 48% 30.09 in 10.0 mi NNE 6.9 mph - N/A   Clear
6:53 PM 14.0 °F 5.1 °F 3.0 °F 62% 30.18 in 10.0 mi NE 5.8 mph - N/A   Clear
7:53 PM 14.0 °F 5.1 °F 3.0 °F 62% 30.19 in 10.0 mi NE 5.8 mph - N/A   Clear
8:53 PM 14.0 °F 6.5 °F 3.9 °F 64% 30.19 in 10.0 mi NE 4.6 mph - N/A   Overcast
9:53 PM 12.9 °F -0.2 °F 3.9 °F 67% 30.19 in 10.0 mi NE 10.4 mph - N/A   Clear
10:53 PM 10.9 °F 2.9 °F 3.9 °F 73% 30.20 in 10.0 mi ENE 4.6 mph - N/A   Mostly Cloudy
11:53 PM 10.9 °F 2.9 °F 3.9 °F 73% 30.19 in 10.0 mi ENE 4.6 mph - N/A   Overcast